Time,TemperatureF,DewpointF,PressureIn,WindDirection,WindDirectionDegrees,WindSpeedMPH,WindSpeedGustMPH,Humidity,HourlyPrecipIn,Conditions,Clouds,dailyrainin,SoftwareType,DateUTC
2013-07-08 00:01:00,79.0,61.0,30.07,North,-999,-999.0,-999.0,55,-99.99,,,-99.99,,2013-07-08 05:01:00,
2013-07-08 00:12:00,79.0,62.0,30.07,North,-999,-999.0,-999.0,56,-99.99,,,-99.99,,2013-07-08 05:12:00,
2013-07-08 00:22:00,79.0,62.0,30.07,North,-999,-999.0,-999.0,56,-99.99,,,-99.99,,2013-07-08 05:22:00,
2013-07-08 00:33:00,78.0,62.0,30.07,North,-999,-999.0,-999.0,57,-99.99,,,-99.99,,2013-07-08 05:33:00,
2013-07-08 00:43:00,78.0,62.0,30.07,North,-999,-999.0,-999.0,57,-99.99,,,-99.99,,2013-07-08 05:43:00,
2013-07-08 00:53:00,78.0,62.0,30.08,North,-999,-999.0,-999.0,58,-99.99,,,-99.99,,2013-07-08 05:53:00,
2013-07-08 01:01:00,78.0,62.0,30.08,North,-999,-999.0,-999.0,58,-99.99,,,-99.99,,2013-07-08 06:01:00,
2013-07-08 01:12:00,78.0,62.0,30.09,North,-999,-999.0,-999.0,59,-99.99,,,-99.99,,2013-07-08 06:12:00,
2013-07-08 01:33:00,77.0,63.0,30.09,North,-999,-999.0,-999.0,61,-99.99,,,-99.99,,2013-07-08 06:33:00,
2013-07-08 01:43:00,77.0,62.0,30.09,North,-999,-999.0,-999.0,61,-99.99,,,-99.99,,2013-07-08 06:43:00,
2013-07-08 02:02:00,76.0,63.0,30.09,North,-999,-999.0,-999.0,63,-99.99,,,-99.99,,2013-07-08 07:02:00,
2013-07-08 02:12:00,76.0,63.0,30.09,North,-999,-999.0,-999.0,64,-99.99,,,-99.99,,2013-07-08 07:12:00,
2013-07-08 02:22:00,76.0,63.0,30.09,North,-999,-999.0,-999.0,64,-99.99,,,-99.99,,2013-07-08 07:22:00,
2013-07-08 02:34:00,76.0,63.0,30.07,North,-999,-999.0,-999.0,65,-99.99,,,-99.99,,2013-07-08 07:34:00,
2013-07-08 02:44:00,76.0,63.0,30.07,North,-999,-999.0,-999.0,65,-99.99,,,-99.99,,2013-07-08 07:44:00,
2013-07-08 03:02:00,76.0,63.0,30.07,North,-999,-999.0,-999.0,66,-99.99,,,-99.99,,2013-07-08 08:02:00,
2013-07-08 03:12:00,75.0,63.0,30.08,North,-999,-999.0,-999.0,66,-99.99,,,-99.99,,2013-07-08 08:12:00,
2013-07-08 03:33:00,75.0,63.0,30.08,North,-999,-999.0,-999.0,67,-99.99,,,-99.99,,2013-07-08 08:33:00,
2013-07-08 03:42:00,75.0,64.0,30.07,North,-999,-999.0,-999.0,68,-99.99,,,-99.99,,2013-07-08 08:42:00,
2013-07-08 04:02:00,75.0,64.0,30.07,North,-999,-999.0,-999.0,69,-99.99,,,-99.99,,2013-07-08 09:02:00,
2013-07-08 04:11:00,74.0,64.0,30.07,North,-999,-999.0,-999.0,69,-99.99,,,-99.99,,2013-07-08 09:11:00,
2013-07-08 04:34:00,74.0,64.0,30.07,North,-999,-999.0,-999.0,70,-99.99,,,-99.99,,2013-07-08 09:34:00,
2013-07-08 04:43:00,74.0,64.0,30.07,North,-999,-999.0,-999.0,70,-99.99,,,-99.99,,2013-07-08 09:43:00,
2013-07-08 05:02:00,74.0,64.0,30.08,North,-999,-999.0,-999.0,71,-99.99,,,-99.99,,2013-07-08 10:02:00,
2013-07-08 05:11:00,74.0,64.0,30.08,North,-999,-999.0,-999.0,71,-99.99,,,-99.99,,2013-07-08 10:11:00,
2013-07-08 05:22:00,74.0,64.0,30.08,North,-999,-999.0,-999.0,71,-99.99,,,-99.99,,2013-07-08 10:22:00,
2013-07-08 05:34:00,74.0,64.0,30.08,North,-999,-999.0,-999.0,72,-99.99,,,-99.99,,2013-07-08 10:34:00,
2013-07-08 05:43:00,74.0,65.0,30.09,North,-999,-999.0,-999.0,73,-99.99,,,-99.99,,2013-07-08 10:43:00,
2013-07-08 05:53:00,73.0,65.0,30.09,North,-999,-999.0,-999.0,74,-99.99,,,-99.99,,2013-07-08 10:53:00,
2013-07-08 06:02:00,73.0,65.0,30.09,North,-999,-999.0,-999.0,74,-99.99,,,-99.99,,2013-07-08 11:02:00,
2013-07-08 06:11:00,73.0,64.0,30.09,North,-999,-999.0,-999.0,74,-99.99,,,-99.99,,2013-07-08 11:11:00,
2013-07-08 06:33:00,73.0,65.0,30.10,North,-999,-999.0,-999.0,75,-99.99,,,-99.99,,2013-07-08 11:33:00,
2013-07-08 06:43:00,73.0,65.0,30.09,North,-999,-999.0,-999.0,75,-99.99,,,-99.99,,2013-07-08 11:43:00,
2013-07-08 07:01:00,73.0,65.0,30.10,North,-999,-999.0,-999.0,76,-99.99,,,-99.99,,2013-07-08 12:01:00,
2013-07-08 07:11:00,73.0,65.0,30.10,North,-999,-999.0,-999.0,76,-99.99,,,-99.99,,2013-07-08 12:11:00,
2013-07-08 07:34:00,73.0,65.0,30.10,North,-999,-999.0,-999.0,76,-99.99,,,-99.99,,2013-07-08 12:34:00,
2013-07-08 07:43:00,74.0,66.0,30.10,North,-999,-999.0,-999.0,76,-99.99,,,-99.99,,2013-07-08 12:43:00,
2013-07-08 08:02:00,74.0,66.0,30.11,North,-999,-999.0,-999.0,76,-99.99,,,-99.99,,2013-07-08 13:02:00,
2013-07-08 08:11:00,75.0,66.0,30.11,North,-999,-999.0,-999.0,75,-99.99,,,-99.99,,2013-07-08 13:11:00,
2013-07-08 08:33:00,75.0,67.0,30.11,North,-999,-999.0,-999.0,74,-99.99,,,-99.99,,2013-07-08 13:33:00,
2013-07-08 08:42:00,76.0,67.0,30.11,North,-999,-999.0,-999.0,74,-99.99,,,-99.99,,2013-07-08 13:42:00,
2013-07-08 09:02:00,76.0,68.0,30.12,North,-999,-999.0,-999.0,74,-99.99,,,-99.99,,2013-07-08 14:02:00,
2013-07-08 09:12:00,77.0,67.0,30.12,North,-999,-999.0,-999.0,73,-99.99,,,-99.99,,2013-07-08 14:12:00,
2013-07-08 09:22:00,77.0,67.0,30.12,North,-999,-999.0,-999.0,73,-99.99,,,-99.99,,2013-07-08 14:22:00,
2013-07-08 09:34:00,79.0,69.0,30.12,North,-999,-999.0,-999.0,71,-99.99,,,-99.99,,2013-07-08 14:34:00,
2013-07-08 09:43:00,80.0,68.0,30.13,North,-999,-999.0,-999.0,68,-99.99,,,-99.99,,2013-07-08 14:43:00,
2013-07-08 10:02:00,81.0,70.0,30.13,North,-999,-999.0,-999.0,69,-99.99,,,-99.99,,2013-07-08 15:02:00,
2013-07-08 10:11:00,82.0,71.0,30.13,North,-999,-999.0,-999.0,69,-99.99,,,-99.99,,2013-07-08 15:11:00,
2013-07-08 10:22:00,82.0,71.0,30.13,North,-999,-999.0,-999.0,69,-99.99,,,-99.99,,2013-07-08 15:22:00,
2013-07-08 10:33:00,83.0,70.0,30.13,North,-999,-999.0,-999.0,65,-99.99,,,-99.99,,2013-07-08 15:33:00,
2013-07-08 10:43:00,84.0,70.0,30.13,North,-999,-999.0,-999.0,64,-99.99,,,-99.99,,2013-07-08 15:43:00,
2013-07-08 11:01:00,85.0,71.0,30.13,North,-999,-999.0,-999.0,65,-99.99,,,-99.99,,2013-07-08 16:01:00,
2013-07-08 11:11:00,85.0,71.0,30.13,North,-999,-999.0,-999.0,63,-99.99,,,-99.99,,2013-07-08 16:11:00,
2013-07-08 11:33:00,85.0,71.0,30.13,North,-999,-999.0,-999.0,63,-99.99,,,-99.99,,2013-07-08 16:33:00,
2013-07-08 11:43:00,86.0,72.0,30.13,North,-999,-999.0,-999.0,63,-99.99,,,-99.99,,2013-07-08 16:43:00,
2013-07-08 12:07:00,86.0,72.0,30.13,North,-999,-999.0,-999.0,63,-99.99,,,-99.99,,2013-07-08 17:07:00,
2013-07-08 12:14:00,86.0,70.0,30.13,North,-999,-999.0,-999.0,60,-99.99,,,-99.99,,2013-07-08 17:14:00,
2013-07-08 12:28:00,86.0,70.0,30.13,North,-999,-999.0,-999.0,60,-99.99,,,-99.99,,2013-07-08 17:28:00,
2013-07-08 12:30:00,88.0,71.0,30.13,North,-999,-999.0,-999.0,58,-99.99,,,-99.99,,2013-07-08 17:30:00,
2013-07-08 12:37:00,87.0,71.0,30.13,North,-999,-999.0,-999.0,59,-99.99,,,-99.99,,2013-07-08 17:37:00,
2013-07-08 12:46:00,87.0,72.0,30.13,North,-999,-999.0,-999.0,61,-99.99,,,-99.99,,2013-07-08 17:46:00,
2013-07-08 13:23:00,88.0,71.0,30.13,North,-999,-999.0,-999.0,58,-99.99,,,-99.99,,2013-07-08 18:23:00,
2013-07-08 13:30:00,90.0,70.0,30.12,North,-999,-999.0,-999.0,52,-99.99,,,-99.99,,2013-07-08 18:30:00,
2013-07-08 13:43:00,88.0,71.0,30.13,North,-999,-999.0,-999.0,59,-99.99,,,-99.99,,2013-07-08 18:43:00,
2013-07-08 13:50:00,88.0,72.0,30.13,North,-999,-999.0,-999.0,59,-99.99,,,-99.99,,2013-07-08 18:50:00,
2013-07-08 14:19:00,90.0,70.0,30.12,North,-999,-999.0,-999.0,52,-99.99,,,-99.99,,2013-07-08 19:19:00,
2013-07-08 14:38:00,91.0,68.0,30.11,North,-999,-999.0,-999.0,47,-99.99,,,-99.99,,2013-07-08 19:38:00,
2013-07-08 14:51:00,92.0,69.0,30.11,North,-999,-999.0,-999.0,48,-99.99,,,-99.99,,2013-07-08 19:51:00,
2013-07-08 15:21:00,91.0,68.0,30.11,North,-999,-999.0,-999.0,46,-99.99,,,-99.99,,2013-07-08 20:21:00,
2013-07-08 15:43:00,92.0,68.0,30.10,North,-999,-999.0,-999.0,46,-99.99,,,-99.99,,2013-07-08 20:43:00,
2013-07-08 15:50:00,92.0,68.0,30.10,North,-999,-999.0,-999.0,45,-99.99,,,-99.99,,2013-07-08 20:50:00,
2013-07-08 16:13:00,92.0,67.0,30.09,North,-999,-999.0,-999.0,44,-99.99,,,-99.99,,2013-07-08 21:13:00,
2013-07-08 16:21:00,92.0,65.0,30.09,North,-999,-999.0,-999.0,41,-99.99,,,-99.99,,2013-07-08 21:21:00,
2013-07-08 16:41:00,92.0,65.0,30.09,North,-999,-999.0,-999.0,42,-99.99,,,-99.99,,2013-07-08 21:41:00,
2013-07-08 17:01:00,90.0,66.0,30.08,North,-999,-999.0,-999.0,46,-99.99,,,-99.99,,2013-07-08 22:01:00,
2013-07-08 17:15:00,90.0,66.0,30.08,North,-999,-999.0,-999.0,46,-99.99,,,-99.99,,2013-07-08 22:15:00,
2013-07-08 17:22:00,90.0,64.0,30.08,North,-999,-999.0,-999.0,43,-99.99,,,-99.99,,2013-07-08 22:22:00,
2013-07-08 18:14:00,89.0,66.0,30.08,North,-999,-999.0,-999.0,47,-99.99,,,-99.99,,2013-07-08 23:14:00,
2013-07-08 18:20:00,89.0,67.0,30.07,North,-999,-999.0,-999.0,48,-99.99,,,-99.99,,2013-07-08 23:20:00,
2013-07-08 19:14:00,89.0,69.0,30.06,North,-999,-999.0,-999.0,52,-99.99,,,-99.99,,2013-07-09 00:14:00,
2013-07-08 19:42:00,88.0,70.0,30.06,North,-999,-999.0,-999.0,56,-99.99,,,-99.99,,2013-07-09 00:42:00,
2013-07-08 19:59:00,87.0,70.0,30.06,North,-999,-999.0,-999.0,57,-99.99,,,-99.99,,2013-07-09 00:59:00,
2013-07-08 20:13:00,87.0,70.0,30.06,North,-999,-999.0,-999.0,57,-99.99,,,-99.99,,2013-07-09 01:13:00,
2013-07-08 20:30:00,83.0,68.0,30.06,North,-999,-999.0,-999.0,62,-99.99,,,-99.99,,2013-07-09 01:30:00,
2013-07-08 20:53:00,86.0,70.0,30.06,North,-999,-999.0,-999.0,59,-99.99,,,-99.99,,2013-07-09 01:53:00,
2013-07-08 21:44:00,81.0,68.0,30.06,North,-999,-999.0,-999.0,64,-99.99,,,-99.99,,2013-07-09 02:44:00,
2013-07-08 21:54:00,80.0,68.0,30.06,North,-999,-999.0,-999.0,65,-99.99,,,-99.99,,2013-07-09 02:54:00,
2013-07-08 22:43:00,79.0,67.0,30.07,North,-999,-999.0,-999.0,67,-99.99,,,-99.99,,2013-07-09 03:43:00,
2013-07-08 23:02:00,79.0,66.0,30.07,North,-999,-999.0,-999.0,66,-99.99,,,-99.99,,2013-07-09 04:02:00,
2013-07-08 23:11:00,79.0,66.0,30.07,North,-999,-999.0,-999.0,66,-99.99,,,-99.99,,2013-07-09 04:11:00,
2013-07-08 23:22:00,79.0,66.0,30.07,North,-999,-999.0,-999.0,66,-99.99,,,-99.99,,2013-07-09 04:22:00,
2013-07-08 23:34:00,79.0,66.0,30.08,North,-999,-999.0,-999.0,65,-99.99,,,-99.99,,2013-07-09 04:34:00,
2013-07-08 23:42:00,79.0,66.0,30.09,North,-999,-999.0,-999.0,65,-99.99,,,-99.99,,2013-07-09 04:42:00,